Simultaneous Nadir Overpasses (SNOs) Predictions

Prediction of SNOs between GOES-16 and NOAA-20 Satellite Orbit:

Table of predicted SNOs for the next 14.0 days since TLE Epoch: 11/22/2019
Index Date Time (GOES-16) GOES-16 Lat,Lon NOAA-20 Lat,Lon Distance(km) Time Diff (sec)
1 11/22/2019 18:40:19 0.01, -75.19 0.00, -78.91 413.34 0
2 11/23/2019 18:22:41 0.01, -75.20 0.26, -74.21 113.23 80
3 11/25/2019 06:44:28 -0.01, -75.20 0.95, -79.47 487.19 80
4 11/26/2019 06:23:04 -0.01, -75.20 -0.07, -74.94 29.77 80
5 11/28/2019 18:26:16 0.01, -75.23 -0.09, -75.72 55.45 80
6 11/29/2019 18:10:11 0.01, -75.24 0.94, -71.19 462.10 80
7 12/01/2019 06:31:59 -0.01, -75.25 0.27, -76.45 136.96 80
8 12/02/2019 06:10:34 -0.00, -75.26 -0.76, -71.92 380.98 80
9 12/03/2019 18:32:30 0.00, -75.29 -0.42, -77.22 220.05 80
10 12/04/2019 18:16:26 0.00, -75.31 0.60, -72.69 298.44 80
11 12/06/2019 06:38:13 0.00, -75.33 0.60, -77.96 299.19 80




NCC Satellite Simultaneous Nadir Overpasses (SNOs) Prediction Service
